Regional Weather Roundup
Issued by NWS

Home | Current Version | Previous Version | Graphics & Text | Print | Product List | Glossary On
Versions: 1 2 3 4 5 6 7 8 9 10 11 12 13 14 15 16 17 18 19 20 21 22 23 24 25 26 27 28 29 30 31 32 33 34 35 36 37 38 39 40 41 42 43 44 45 46 47 48
000
ASUS45 KBOU 170810
RWRCO

WEATHER ROUNDUP FOR COLORADO
NATIONAL WEATHER SERVICE DENVER/BOULDER CO
100 AM MST SAT FEB 17 2018

NOTE: "FAIR" INDICATES FEW OR NO CLOUDS BELOW 12000 FEET WITH NO
SIGNIFICANT WEATHER AND/OR OBSTRUCTIONS TO VISIBILITY.

COZ001>005-013-030-031-170900-
...NORTHWEST COLORADO...

CITY           SKY/WX    TMP DP  RH WIND       PRES   REMARKS
CRAIG          CLOUDY    17  11  77 CALM      30.08R
HAYDEN         MOCLDY    21  14  74 W8        30.06S WCI  11
MEEKER         FAIR      28  11  48 SW9       30.08R WCI  19
RANGELY        FAIR      21  11  66 E5        30.08S WCI  15
RABBIT EARS PA CLOUDY    10   9  92 W12G22    29.93S WCI  -4
STEAMBOAT SPGS CLOUDY    19  14  79 E3        30.05R
WALDEN         CLOUDY    21  10  63 W10G20    29.98R WCI  10
$$

COZ006>008-011-170900-
...WEST CENTRAL VALLEYS...

CITY           SKY/WX    TMP DP  RH WIND       PRES   REMARKS
GRAND JUNCTION FAIR      27  21  78 E5        30.15R WCI  22
MONTROSE       MOCLDY    23  20  88 SE6       30.18R WCI  16
EAGLE          FAIR      30  16  56 SW13      30.11R WCI  20
RIFLE          CLOUDY    30  17  58 S6        30.14R WCI  24
DELTA          FAIR      26  18  72 CALM      30.17S
NUCLA          FAIR      27  19  74 SE10      30.20R WCI  17
$$

COZ017>023-064>068-170900-
...SOUTHWEST COLORADO...

CITY           SKY/WX    TMP DP  RH WIND       PRES   REMARKS
DURANGO        FAIR      23  20  88 CALM      30.14S
CORTEZ         FAIR      20  17  88 E6        30.18R WCI  12
PAGOSA SPRINGS FAIR      17  16  96 CALM      30.15S
TELLURIDE      CLOUDY    20   9  60 SE6       30.18R WCI  13
WOLF CREEK PAS CLOUDY    12  12 100 SW20G28   30.13S WCI  -6
$$

COZ009-010-012-014-032>034-037-058>063-170900-
...CENTRAL COLORADO...

CITY           SKY/WX    TMP DP  RH WIND       PRES   REMARKS
ASPEN          CLOUDY    18  13  80 S6        30.06R WCI  10
BUENA VISTA    FAIR      31   6  34 N10G28    30.00R WCI  22
COPPER MTN     LGT SNOW  14   9  79 W25G33    29.95F WCI  -5
BERTHOUD PASS  LGT SNOW   7  -4  61 W51G69    29.77R WCI -22
COTTONWOOD PAS FAIR      30  10  43 W30G52    29.93R WCI  15
GUNNISON       CLOUDY    20  15  81 VRB3      30.11R
GRANBY         CLOUDY    25  11  54 W13G24    29.97R WCI  14
KREMMLING      FAIR      34  12  40 W13G21    29.98F WCI  25
LEADVILLE      MIX PCPN  18   9  68 NW24G38   29.99R WCI   0
MONARCH PASS   CLOUDY    12   9  85 W32G49    30.11S WCI -10
SALIDA         FAIR      34   7  32 W8G25     30.09R WCI  27
SUNLIGHT       CLOUDY    12   9  85 SW20G30     N/A  WCI  -6
WILKERSON PASS MOCLDY    16   5  62 W21G31    29.95S WCI  -2
$$

COZ069>075-170900-
...SAN LUIS VALLEY/SANGRE DE CRISTO MOUNTAINS...

CITY           SKY/WX    TMP DP  RH WIND       PRES   REMARKS
ALAMOSA        FAIR      20  16  84 CALM      30.06R
DEL NORTE      FAIR      27  12  52 W5        30.07S WCI  22
LA VETA PASS   FAIR      23  10  58 S24G43    30.07R WCI   7
SAGUACHE       FAIR      19  10  68 NW5       30.08R WCI  13
$$

COZ035-036-038>040-170900-
...NORTHERN COLORADO FRONT RANGE...

CITY           SKY/WX    TMP DP  RH WIND       PRES   REMARKS
DENVER INTL AP FAIR      39  11  31 W15       29.87R
AURORA         CLEAR     34  12  39 N14       29.87R WCI  25
FRONT RANGE AP FAIR      40  12  31 NW23G31   29.86R
ERIE MUNI ARPT FAIR      40   8  26 NW10G18   29.92R
BOULDER MUN AP FAIR      41  10  28 SW17G41   29.81F
CENTENNIAL     FAIR      33  12  41 SW5       29.85R WCI  29
BROOMFIELD     FAIR      41  10  28 W22G33    29.85S
FORT COLLINS   FAIR      36  11  35 NE8       29.87R
LONGMONT       FAIR      43   7  22 NW24G30   29.86R
$$

COZ041-046-047-076>085-087-088-170900-
...PIKES PEAK/PALMER DIVIDE AND SOUTHERN FOOTHILLS...

CITY           SKY/WX    TMP DP  RH WIND       PRES   REMARKS
COLO. SPRINGS  FAIR      40  11  30 NW14G29   29.83R
A. F. ACADEMY  FAIR      38   7  27 W36G59    29.78F
SCHRIEVER AFB  NOT AVBL
CHEYENNE MTN   FAIR      37   7  28 W5        29.78R
ELLICOTT         N/A    N/A N/A N/A N20G28    29.85R
FALCON         FAIR      36   8  31 NW33G43   29.83S
FORT CARSON    FAIR      40  10  28 E18       29.81R
LIMON          FAIR      29  17  61 NW14      29.86R WCI  18
MONUMENT HILL  FAIR      30  12  47 W14G24    29.86S WCI  20
CANON CITY     CLEAR     39  12  33 W12       29.91R
WALSENBURG     NOT AVBL
TRINIDAD       FAIR      35  16  45 W10       29.87F WCI  27
$$

COZ042>045-048>051-090-091-170900-
...NORTHEAST COLORADO...

CITY           SKY/WX    TMP DP  RH WIND       PRES   REMARKS
GREELEY ARPT   FAIR      21  17  84 SW3       29.88R
AKRON          FAIR      25  22  88 NW10      29.87R WCI  15
BURLINGTON     FAIR      30  21  69 W14       29.84R WCI  19
WRAY           FAIR      23  21  93 SW6       29.85R WCI  16
YUMA           NOT AVBL
STERLING       FAIR      32  21  64 N13       29.87R WCI  22
HOLYOKE        FAIR      32  27  80 NW13      29.86R WCI  22
FORT MORGAN    FAIR      28  18  66 NW12      29.89R WCI  18
$$

COZ086-089-092>099-170900-
...SOUTHEAST COLORADO...

CITY           SKY/WX    TMP DP  RH WIND       PRES   REMARKS
PUEBLO         FAIR      45  13  27 NW9       29.85R
LA JUNTA       FAIR      40  24  53 W15       29.84S
LAMAR          FAIR      31  20  63 N5        29.81S WCI  26
SPRINGFIELD      N/A     36  28  73 SW13      29.83S
$$




USA.gov is the U.S. government's official web portal to all federal, state and local government web resources and services.